Back to catalog

CZ-6A DEB

AliveSSO
NORAD 54522·DEBRIS·🇨🇳 China

Launched Nov 11, 2022 from Taiyuan Satellite Launch Center

Loading…

Next Passes (next 24 hours)

TLE

FreshSource: Space-Track

Epoch: Sep 14, 2026, 03:45 UTC

1 54522U 22151KA  26257.15674332  .00000716  00000-0  47295-3 0  9996
2 54522  98.8976 236.1942 0108619 180.2539 179.8589 14.01981387196103

Track CZ-6A DEB in real time with AllMySat

Download on the App Store